Flag for American Samoa Weather past 2 weeks in Pago Pago, American Samoa

Now
80 °F

Partly cloudy.


Feels Like: 87 °F
Forecast: 81 / 89 °F
Wind: 3 mph from North

Location: Pago Pago / Int. Airp.

Current Time: Feb 28, 2015 at 1:50:44 AM

Latest Report: Feb 28, 2015 at 12:51 AM


Visibility: 10 mi

Pressure: 29.77 "Hg

Humidity: 90%

Dew point: 77 °F

Location of Pago PagoLocation

Historic Weather in Pago Pago — Graph

°F

Pago Pago temperature yesterday

Maximum temperature yesterday: 90 °F (at 11:51 AM)
Minimum temperature yesterday: 80 °F (at 8:55 PM)
Average temperature yesterday: 85 °F

Past Weeks' High & Low Weather Summary

 TemperatureHumidityPressure
High91 °F (Feb 19, 1:53 PM)95% (Feb 22, 4:50 AM)29.88 "Hg (Feb 22, 4:50 AM)
Low76 °F (Feb 22, 4:50 AM)64% (Feb 22, 1:50 PM)29.70 "Hg (Feb 27, 2:52 PM)
Average84 °F82%29.79 "Hg
* Reported Feb 12 11:50 PM — Feb 27 11:51 PM, Pago Pago, Weather by CustomWeather, © 2015

Note: Actual official high and low records may vary slightly from our data, if they occured in-between our weather recording intervals... More about our weather records

Advertising

Pago Pago weather history for previous 24 hours

 ConditionsComfort  
Time TempWeatherWind HumidityBarometerVisibility
11:51 PM
Fri, Feb 27
80 °FPartly cloudy.2 mph91%29.78 "Hg10 mi
10:50 PM81 °FPartly cloudy.2 mph91%29.80 "Hg10 mi
9:52 PM81 °FPassing clouds.3 mph92%29.80 "Hg10 mi
8:55 PM80 °FPassing clouds.3 mph92%29.78 "Hg10 mi
7:50 PM81 °FSprinkles. Partly cloudy.5 mph89%29.75 "Hg10 mi
6:50 PM85 °FPartly cloudy.10 mph80%29.73 "Hg11 mi
5:54 PM86 °FBroken clouds.12 mph77%29.72 "Hg12 mi
3:51 PM88 °FScattered clouds.9 mph76%29.70 "Hg12 mi
2:52 PM89 °FScattered clouds.14 mph74%29.70 "Hg12 mi
1:54 PM88 °FScattered clouds.13 mph68%29.72 "Hg12 mi
12:53 PM90 °FScattered clouds.10 mph73%29.73 "Hg12 mi
11:51 AM90 °FBroken clouds.14 mph72%29.75 "Hg12 mi
10:51 AM89 °FBroken clouds.13 mph74%29.77 "Hg12 mi
9:55 AM88 °FBroken clouds.15 mph75%29.78 "Hg12 mi
8:50 AM87 °FBroken clouds.14 mph75%29.78 "Hg12 mi
7:55 AM86 °FBroken clouds.16 mph77%29.78 "Hg12 mi
6:54 AM83 °FBroken clouds.14 mph80%29.77 "Hg12 mi
5:56 AM83 °FPartly cloudy.13 mph81%29.75 "Hg10 mi
4:57 AM83 °FPartly cloudy.14 mph78%29.74 "Hg10 mi
3:56 AM83 °FPartly cloudy.12 mph82%29.72 "Hg10 mi
2:50 AM83 °FOvercast.12 mph82%29.73 "Hg10 mi
1:55 AM84 °FPartly cloudy.12 mph79%29.75 "Hg10 mi
Weather by CustomWeather, © 2015

See weather overviewHow to use our weather pages